Home   Weather   Cumberland   Past weeks

Flag for USA Past Weather in Cumberland, Maryland, USA — Yesterday and Last 2 Weeks

Now
72 °F

Clear.


Feels Like: 73 °F
Forecast: 64 / 80 °F
Wind: No wind

Location: Eastern West Virginia Regional Airport

Current Time: Apr 29, 2017 at 9:48:10 pm

Latest Report: Apr 29, 2017 at 8:53 pm


Visibility: 10 mi

Pressure: 30.05 "Hg

Humidity: 76%

Dew Point: 64 °F

Location of CumberlandLocation

Past Weather in Cumberland — Graph

°F

Cumberland Temperature Yesterday

Maximum temperature yesterday: 82 °F (at 4:53 pm)
Minimum temperature yesterday: 56 °F (at 6:53 am)
Average temperature yesterday: 70 °F

High & Low Weather Summary for the Past Weeks

 TemperatureHumidityPressure
High87 °F (Apr 29, 3:53 pm)100% (Apr 23, 12:08 am)30.40 "Hg (Apr 23, 12:08 am)
Low42 °F (Apr 18, 6:53 am)27% (Apr 17, 6:53 pm)29.70 "Hg (Apr 27, 4:53 pm)
Average61 °F72%30.00 "Hg
* Reported Apr 14 7:53 pm — Apr 29 7:53 pm, Cumberland, Weather by CustomWeather, © 2017

Note: Actual official high and low records may vary slightly from our data, if they occured in-between our weather recording intervals... More about our weather records

Advertising

Cumberland Weather History for the Previous 24 Hours

Scroll right to see more
 ConditionsComfort  
Time TempWeatherWind HumidityBarometerVisibility
7:53 pm
Sat, Apr 29
78 °FSunny.3 mph66%30.03 "Hg10 mi
6:53 pm82 °FSunny.3 mph55%30.02 "Hg10 mi
5:53 pm84 °FSunny.6 mph51%30.02 "Hg10 mi
4:53 pm85 °FSunny.7 mph45%30.02 "Hg10 mi
3:53 pm87 °FSunny.10 mph39%30.04 "Hg10 mi
2:53 pm85 °FSunny.5 mph48%30.05 "Hg10 mi
1:53 pm83 °FSunny.8 mph53%30.05 "Hg10 mi
12:53 pm80 °FSunny.8 mph58%30.04 "Hg10 mi
11:53 am77 °FSunny.9 mph62%30.05 "Hg10 mi
10:53 am73 °FSunny.6 mph66%30.05 "Hg10 mi
9:53 am70 °FPassing clouds.10 mph71%30.09 "Hg10 mi
8:53 am69 °FPartly sunny.8 mph70%30.08 "Hg10 mi
7:53 am72 °FScattered clouds.17 mph59%30.05 "Hg10 mi
6:53 am66 °FSunny.9 mph81%30.01 "Hg10 mi
5:53 am64 °FClear.5 mph94%29.97 "Hg7 mi
4:53 am65 °FClear.5 mph94%29.97 "Hg9 mi
3:53 am65 °FLight rain. Fog.6 mph97%30.03 "Hg5 mi
2:53 am68 °FPassing clouds.5 mph82%30.02 "Hg10 mi
1:53 am68 °FClear.3 mph78%29.99 "Hg10 mi
12:53 am68 °FClear.No wind76%29.98 "Hg10 mi
11:53 pm
Fri, Apr 28
71 °FClear.No wind68%29.97 "Hg10 mi
10:53 pm71 °FClear.6 mph68%29.97 "Hg10 mi
9:53 pm72 °FClear.5 mph64%29.98 "Hg10 mi
Weather by CustomWeather, © 2017

See weather overviewHow to use our weather pages